Location: Newport
(44.6370°N, 124.0520°W)
Time: 05:33:20
(UTC-08:00)

Envisat - Pass Details

Date: 09 October 2017
Orbit: 764 x 766 km, 98.2° (Epoch: 10 December)

Event Time Altitude Azimuth Distance (km) Brightness Sun altitude
Exits shadow 22:05:04 25° 264° (W) 1,524 4.9 -35.9°
Maximum altitude 22:05:11 25° 267° (W) 1,523 4.9 -35.9°
Drops below altitude 10° 22:09:21 10° 321° (NW) 2,313 6.2 -36.5°
Sets 22:12:04 0° 335° (NNW) 3,245 6.9 -36.9°
